Location: St. Louis
(38.6270°N, 90.1994°W)
Time: 08:20:49
(UTC-06:00)

A-11 Canister half - Pass Details

Date: 08 December 2021
Orbit: 1524 x 1684 km, 47.3° (Epoch: 17 January)

Event Time Altitude Azimuth Distance (km) Brightness Sun altitude
Rises 23:07:19 0° 220° (SW) 4,884 - -71.4°
Reaches altitude 10° 23:10:29 10° 217° (SW) 3,913 - -71.8°
Maximum altitude 23:20:22 63° 140° (SE) 1,843 - -72.7°
Drops below altitude 10° 23:30:20 10° 62° (ENE) 3,942 - -73.5°
Sets 23:33:31 0° 60° (ENE) 4,922 - -73.7°
